THORAD DELTA 1 DEB, 37148

Orbit data source: Space-Track

THORAD DELTA 1 DEB, 37148 is space debris in SSO originally from a launch on Fri, 15 Nov 1974 UTC launched from the Air Force Western Test Range (AFWTR). Debris objects in space refer to the collection of defunct objects orbiting the Earth. Examples of debris include non-operational satellites, rocket bodies, and fragments generated from explosions, collisions, or faulty payload assembly.

Loading next visibility...
Identifier
37148, 1974-089FH
Orbit
SSO
Country
Flag of USUS
Related business
Manufacturer
Unknown
Mission
Spacecraft
Bus & Motor
Unknown
Mass
Unknown
Launch date (UTC)
1974-11-15 (51 years ago)
Launch vehicle
Unknown
Launch site
Air Force Western Test Range (AFWTR)
Object type
Payload
Rocket body
Debris
Shape & HBR
Unknown shape, 0.1 m
Radar Cross Section
Small (<0.1 m²)

Expand to show TLE details & history
Last TLE update: 19 hours ago

TLE from 19 hours ago
0 THORAD DELTA 1 DEB
1 37148U 74089FH  26048.37158954  .00031641  00000-0  12315-1 0  9991
2 37148 101.6891 201.2320 0011068 192.9409 197.0807 14.29616735779527
Epoch: 2026-02-17T08:55Z
TLE epoch observation values (Epoch: 2026-02-17T08:55:05.336Z)
Latitude
29.35235°
Longitude
-86.5387°
Altitude
804.146 km
Speed
7.45 km/s
True Right ascension
12h 58m 20s
True Declination
29° 12' 24"
Sunlit
Object was in full shadow at epoch
Visualization orbit readout
Latitude
Unknown
Longitude
Unknown
Altitude
Unknown
Speed
Unknown
Apparent Right ascension
Unknown
Apparent Declination
Unknown
Sunlit
N/A
Visualization observer readout
Local Sidereal Time
06:37:17
Azimuth
Unknown
Elevation
Unknown
Doppler factor
Unknown
Orbital elements
Apogee altitude
798.259 km
Perigee altitude
782.391 km
Semi-major axis
7,168.462 km
Eccentricity
0.00111
Inclination
101.6891°
RAAN
201.232°
Arg. of periapsis
192.9409°
True anomaly
197.0435°
Mean anomaly
197.0807°
Eccentric anomaly
197.06209°
Mean motion
3.57606 °/min
Orbital period
100.67 mins
BSTAR
0.012315
Loading maneuver chart data...
Computing Atmospheric mass density...

Documentation

Showing up to 5 results
|